Location: Newark
(39.0622°N, 106.5590°E)
Time: 23:27:26
(UTC+00:00)

Courier 1B - Pass Details

Date: 31 January 2020
Orbit: 962 x 1209 km, 28.3° (Epoch: 20 February)

Event Time Altitude Azimuth Distance (km) Brightness Sun altitude
Rises 21:30:13 0° 261° (W) 3,836 - -29.5°
Reaches altitude 10° 21:33:30 10° 247° (WSW) 2,924 - -28.8°
Exits shadow 21:38:48 23° 199° (SSW) 2,180 9.1 -27.8°
Maximum altitude 21:38:54 23° 198° (SSW) 2,180 9.1 -27.8°
Drops below altitude 10° 21:44:31 10° 150° (SSE) 3,053 10.4 -26.7°
Sets 21:48:03 0° 136° (SE) 4,047 11.4 -26.0°
